Regional Weather Roundup
Issued by NWS

Home | Current Version | Previous Version | Text Only | Print | Product List | Glossary On
Versions: 1 2 3 4 5 6 7 8 9 10 11 12 13 14 15 16 17 18 19 20 21 22 23 24 25 26 27 28 29 30 31 32 33 34 35 36 37 38 39 40 41 42 43 44 45 46 47 48 49 50
307
ASUS44 KLIX 071011
RWRLA
LOUISIANA WEATHER ROUNDUP
NATIONAL WEATHER SERVICE NEW ORLEANS LA
400 AM CST SUN FEB 07 2016

NOTE: "FAIR" INDICATES FEW OR NO CLOUDS BELOW 12,000 FEET WITH NO
      SIGNIFICANT WEATHER AND/OR OBSTRUCTIONS TO VISIBILITY.
      SKY/WX - SKY CONDITION AND SIGNIFICANT WEATHER.
      TMP - AIR TEMPERATURE.    DP   - DEWPOINT TEMPERATURE.
      RH  - RELATIVE HUMIDITY.  PRES - PRESSURE.
      HX  - HEAT INDEX.         WCI  - WIND CHILL INDEX.

*  THESE STATIONS ARE NOT NWS OR FAA STATIONS AND ARE NOT UNDER
   NWS QUALITY CONTROL.

LAZ040-048-061>063-065-066-069-071100-
SOUTHEAST LOUISIANA

CITY           SKY/WX    TMP DP  RH WIND       PRES   REMARKS
N.O. AUDUBON   NOT AVBL
N.O. INTL ARPT CLEAR     41  32  70 N3        30.29R
N.O. LAKEFRONT CLEAR     46  32  58 N10       30.29R
N.O. DOWNTOWN* FAIR      45  30  57 MISG      30.29S
RESERVE*       FAIR      40  28  63 N6        30.30S
SLIDELL        CLEAR     30  29  96 CALM      30.29R
BATON ROUGE    CLEAR     33  28  81 W3        30.31S
BOOTHVILLE     CLEAR     46  40  79 NW5       30.27R
BELLE CHASSE   PTCLDY    32  31  96 CALM      30.28R
BOGALUSA*        N/A     31  28  89 CALM      30.30R
GALLIANO*      SUNNY     40  32  72 N5        30.28S
NEW ROADS*     FAIR      33  32  96 SW6       30.32R WCI  28
GONZALES*      FAIR      35  32  90 CALM      30.30S
HAMMOND*       CLEAR     32  30  93 CALM      30.29F
HOUMA*         CLEAR     39  30  69 NW6       30.29F
PORT FOURCHON* SUNNY     45  37  76 NW8       30.28S

$$

LAZ041-044-053-054-071100-
SOUTHWEST LOUISIANA

CITY           SKY/WX    TMP DP  RH WIND       PRES   REMARKS
LAKE CHARLES   CLEAR     35  33  92 CALM      30.33F FOG
LAFAYETTE      CLEAR     39  35  86 CALM      30.32S
PATTERSON      CLEAR     37  32  81 CALM      30.32S
SALT POINT       N/A     40  35  83 N5        30.31R
NEW IBERIA     CLEAR     38  35  89 NW6       30.33S WCI  33
CHENAULT AIRPK CLEAR     36  36  97 NW3       30.34S

$$

LAZ027-028-071100-
CENTRAL LOUISIANA

CITY           SKY/WX    TMP DP  RH WIND       PRES   REMARKS
FORT POLK      CLEAR     34  34 100 N2        30.30F FOG
ALEXANDRIA INT CLEAR     34  33  96 CALM      30.30F FOG
ALEXANDRIA     CLEAR     32  28  85 CALM      30.31S

$$

LAZ001-002-071100-
NORTHWEST LOUISIANA

CITY           SKY/WX    TMP DP  RH WIND       PRES   REMARKS
SHREVEPORT     CLEAR     35  32  88 W5        30.28F WCI  31
BARKSDALE AFB  CLEAR     30  29  94 CALM      30.29F
DTN SHREVEPORT CLEAR     37  33  85 W5        30.30  WCI  33

$$

LAZ014-016-071100-
NORTHEAST LOUISIANA

CITY           SKY/WX    TMP DP  RH WIND       PRES   REMARKS
MONROE         CLEAR     32  29  88 CALM      30.30F
TALLULAH       CLEAR     32  29  88 S5        30.30F WCI  27

$$





USA.gov is the U.S. government's official web portal to all federal, state and local government web resources and services.